Time,TemperatureF,DewpointF,PressureIn,WindDirection,WindDirectionDegrees,WindSpeedMPH,WindSpeedGustMPH,Humidity,HourlyPrecipIn,Conditions,Clouds,dailyrainin,SoftwareType,DateUTC
2013-06-05 00:01:00,57.7,37.0,29.15,NNE,22,0.0,2.0,46,0.00,,,0.00,WUHU216WMR100,2013-06-05 04:01:00,
2013-06-05 00:02:00,57.6,36.9,29.15,NNE,22,0.0,1.1,46,0.00,,,0.00,WUHU216WMR100,2013-06-05 04:02:00,
2013-06-05 00:08:00,57.2,36.5,29.15,NNE,22,0.0,1.1,46,0.00,,,0.00,WUHU216WMR100,2013-06-05 04:08:00,
2013-06-05 00:13:00,56.8,36.7,29.15,NNE,22,0.0,0.0,47,0.00,,,0.00,WUHU216WMR100,2013-06-05 04:13:00,
2013-06-05 00:18:00,56.8,36.7,29.15,NNE,22,0.0,0.0,47,0.00,,,0.00,WUHU216WMR100,2013-06-05 04:18:00,
2013-06-05 00:23:00,56.7,36.6,29.15,NNE,22,0.0,0.0,47,0.00,,,0.00,WUHU216WMR100,2013-06-05 04:23:00,
2013-06-05 00:28:00,56.3,36.3,29.15,NNE,22,0.0,0.0,47,0.00,,,0.00,WUHU216WMR100,2013-06-05 04:28:00,
2013-06-05 00:33:00,56.3,36.8,29.15,NNE,22,0.0,0.0,48,0.00,,,0.00,WUHU216WMR100,2013-06-05 04:33:00,
2013-06-05 00:39:00,55.9,36.4,29.15,NNE,22,0.0,0.0,48,0.00,,,0.00,WUHU216WMR100,2013-06-05 04:39:00,
2013-06-05 00:44:00,55.8,36.9,29.15,NNE,22,0.0,0.0,49,0.00,,,0.00,WUHU216WMR100,2013-06-05 04:44:00,
2013-06-05 00:49:00,55.6,36.7,29.15,NNE,22,0.0,0.0,49,0.00,,,0.00,WUHU216WMR100,2013-06-05 04:49:00,
2013-06-05 00:54:00,55.2,36.3,29.15,NNE,22,0.0,1.6,49,0.00,,,0.00,WUHU216WMR100,2013-06-05 04:54:00,
2013-06-05 00:59:00,55.2,37.4,29.15,North,0,2.0,3.1,51,0.00,,,0.00,WUHU216WMR100,2013-06-05 04:59:00,
2013-06-05 01:04:00,55.2,36.9,29.15,North,0,0.0,3.1,50,0.00,,,0.00,WUHU216WMR100,2013-06-05 05:04:00,
2013-06-05 01:09:00,54.9,37.1,29.15,North,0,0.0,2.0,51,0.00,,,0.00,WUHU216WMR100,2013-06-05 05:09:00,
2013-06-05 01:14:00,54.9,37.1,29.15,North,0,0.0,0.0,51,0.00,,,0.00,WUHU216WMR100,2013-06-05 05:14:00,
2013-06-05 01:19:00,54.5,36.7,29.12,North,0,0.0,0.0,51,0.00,,,0.00,WUHU216WMR100,2013-06-05 05:19:00,
2013-06-05 01:24:00,54.3,36.6,29.12,North,0,0.0,0.0,51,0.00,,,0.00,WUHU216WMR100,2013-06-05 05:24:00,
2013-06-05 01:29:00,54.3,36.6,29.12,North,0,0.0,0.0,51,0.00,,,0.00,WUHU216WMR100,2013-06-05 05:29:00,
2013-06-05 01:34:00,54.3,37.1,29.12,North,0,0.0,0.0,52,0.00,,,0.00,WUHU216WMR100,2013-06-05 05:34:00,
2013-06-05 01:39:00,54.1,36.9,29.12,North,0,0.0,0.0,52,0.00,,,0.00,WUHU216WMR100,2013-06-05 05:39:00,
2013-06-05 01:44:00,54.0,36.8,29.12,North,0,0.0,0.0,52,0.00,,,0.00,WUHU216WMR100,2013-06-05 05:44:00,
2013-06-05 01:50:00,53.8,37.1,29.12,North,0,0.0,0.0,53,0.00,,,0.00,WUHU216WMR100,2013-06-05 05:50:00,
2013-06-05 01:55:00,53.8,37.1,29.12,North,0,0.0,0.0,53,0.00,,,0.00,WUHU216WMR100,2013-06-05 05:55:00,
2013-06-05 02:00:00,53.6,37.4,29.12,North,0,0.0,0.0,54,0.00,,,0.00,WUHU216WMR100,2013-06-05 06:00:00,
2013-06-05 02:05:00,53.4,37.7,29.12,North,0,0.0,0.0,55,0.00,,,0.00,WUHU216WMR100,2013-06-05 06:05:00,
2013-06-05 02:10:00,53.4,38.2,29.12,North,0,0.0,0.0,56,0.00,,,0.00,WUHU216WMR100,2013-06-05 06:10:00,
2013-06-05 02:15:00,53.2,38.0,29.12,North,0,0.0,0.0,56,0.00,,,0.00,WUHU216WMR100,2013-06-05 06:15:00,
2013-06-05 02:21:00,53.1,38.3,29.12,North,0,0.0,0.0,57,0.00,,,0.00,WUHU216WMR100,2013-06-05 06:21:00,
2013-06-05 02:26:00,52.9,38.6,29.12,North,0,0.0,0.0,58,0.00,,,0.00,WUHU216WMR100,2013-06-05 06:26:00,
2013-06-05 02:31:00,52.9,39.5,29.12,North,0,0.0,0.0,60,0.00,,,0.00,WUHU216WMR100,2013-06-05 06:31:00,
2013-06-05 02:36:00,52.7,39.3,29.12,North,0,0.0,0.0,60,0.00,,,0.00,WUHU216WMR100,2013-06-05 06:36:00,
2013-06-05 02:41:00,52.5,39.1,29.12,North,0,0.0,0.0,60,0.00,,,0.00,WUHU216WMR100,2013-06-05 06:41:00,
2013-06-05 02:46:00,52.5,39.5,29.12,North,0,1.3,2.0,61,0.00,,,0.00,WUHU216WMR100,2013-06-05 06:46:00,
2013-06-05 02:51:00,52.3,39.8,29.12,North,0,0.2,2.0,62,0.00,,,0.00,WUHU216WMR100,2013-06-05 06:51:00,
2013-06-05 02:56:00,52.3,39.8,29.12,North,0,0.1,1.3,62,0.00,,,0.00,WUHU216WMR100,2013-06-05 06:56:00,
2013-06-05 03:02:00,52.3,40.2,29.12,North,0,0.0,1.3,63,0.00,,,0.00,WUHU216WMR100,2013-06-05 07:02:00,
2013-06-05 03:07:00,52.2,40.1,29.12,North,0,0.0,0.0,63,0.00,,,0.00,WUHU216WMR100,2013-06-05 07:07:00,
2013-06-05 03:12:00,52.0,39.9,29.12,North,0,0.0,1.1,63,0.00,,,0.00,WUHU216WMR100,2013-06-05 07:12:00,
2013-06-05 03:17:00,52.0,40.7,29.12,North,0,0.0,1.1,65,0.00,,,0.00,WUHU216WMR100,2013-06-05 07:17:00,
2013-06-05 03:22:00,52.0,40.3,29.12,North,0,0.0,1.3,64,0.00,,,0.00,WUHU216WMR100,2013-06-05 07:22:00,
2013-06-05 03:27:00,51.8,40.5,29.12,North,0,0.0,1.3,65,0.00,,,0.00,WUHU216WMR100,2013-06-05 07:27:00,
2013-06-05 03:32:00,51.6,40.3,29.12,North,0,0.0,0.0,65,0.00,,,0.00,WUHU216WMR100,2013-06-05 07:32:00,
2013-06-05 03:37:00,51.4,40.5,29.12,North,0,0.0,0.0,66,0.00,,,0.00,WUHU216WMR100,2013-06-05 07:37:00,
2013-06-05 03:42:00,51.4,40.5,29.12,North,0,0.0,0.0,66,0.00,,,0.00,WUHU216WMR100,2013-06-05 07:42:00,
2013-06-05 03:47:00,51.3,40.8,29.12,North,0,0.0,0.0,67,0.00,,,0.00,WUHU216WMR100,2013-06-05 07:47:00,
2013-06-05 03:52:00,51.1,40.6,29.12,North,0,0.0,0.0,67,0.00,,,0.00,WUHU216WMR100,2013-06-05 07:52:00,
2013-06-05 03:57:00,51.1,41.0,29.12,North,0,0.0,0.0,68,0.00,,,0.00,WUHU216WMR100,2013-06-05 07:57:00,
2013-06-05 04:02:00,51.1,41.0,29.09,North,0,0.0,0.0,68,0.00,,,0.00,WUHU216WMR100,2013-06-05 08:02:00,
2013-06-05 04:09:00,50.9,41.2,29.09,North,0,1.3,1.6,69,0.00,,,0.00,WUHU216WMR100,2013-06-05 08:09:00,
2013-06-05 04:14:00,51.1,41.8,29.09,North,0,0.4,1.6,70,0.00,,,0.00,WUHU216WMR100,2013-06-05 08:14:00,
2013-06-05 04:19:00,51.1,41.8,29.09,North,0,0.0,1.6,70,0.00,,,0.00,WUHU216WMR100,2013-06-05 08:19:00,
2013-06-05 04:24:00,50.9,41.9,29.09,North,0,0.0,0.0,71,0.00,,,0.00,WUHU216WMR100,2013-06-05 08:24:00,
2013-06-05 04:29:00,50.9,41.9,29.09,North,0,0.0,0.0,71,0.00,,,0.00,WUHU216WMR100,2013-06-05 08:29:00,
2013-06-05 04:34:00,50.9,41.9,29.12,North,0,0.0,0.0,71,0.00,,,0.00,WUHU216WMR100,2013-06-05 08:34:00,
2013-06-05 04:39:00,50.7,41.7,29.12,North,0,0.0,0.0,71,0.00,,,0.00,WUHU216WMR100,2013-06-05 08:39:00,
2013-06-05 04:44:00,50.7,42.1,29.12,North,0,0.0,0.0,72,0.00,,,0.00,WUHU216WMR100,2013-06-05 08:44:00,
2013-06-05 04:49:00,50.7,42.1,29.12,North,0,0.0,0.0,72,0.00,,,0.00,WUHU216WMR100,2013-06-05 08:49:00,
2013-06-05 04:54:00,50.5,41.9,29.12,North,0,0.0,0.0,72,0.00,,,0.00,WUHU216WMR100,2013-06-05 08:54:00,
2013-06-05 04:59:00,50.5,42.3,29.12,North,0,0.0,0.0,73,0.00,,,0.00,WUHU216WMR100,2013-06-05 08:59:00,
2013-06-05 05:04:00,50.5,42.3,29.12,North,0,0.0,0.0,73,0.00,,,0.00,WUHU216WMR100,2013-06-05 09:04:00,
2013-06-05 05:09:00,50.4,42.2,29.12,North,0,0.0,0.0,73,0.00,,,0.00,WUHU216WMR100,2013-06-05 09:09:00,
2013-06-05 05:14:00,50.4,42.2,29.12,North,0,0.0,0.0,73,0.00,,,0.00,WUHU216WMR100,2013-06-05 09:14:00,
2013-06-05 05:19:00,50.4,42.5,29.09,North,0,0.0,0.0,74,0.00,,,0.00,WUHU216WMR100,2013-06-05 09:19:00,
2013-06-05 05:24:00,50.0,42.1,29.09,North,0,0.0,0.0,74,0.00,,,0.00,WUHU216WMR100,2013-06-05 09:24:00,
2013-06-05 05:29:00,49.8,41.9,29.09,North,0,0.0,0.0,74,0.00,,,0.00,WUHU216WMR100,2013-06-05 09:29:00,
2013-06-05 05:34:00,49.6,41.7,29.09,North,0,0.0,0.0,74,0.00,,,0.00,WUHU216WMR100,2013-06-05 09:34:00,
2013-06-05 05:39:00,49.5,41.6,29.09,North,0,0.0,0.0,74,0.00,,,0.00,WUHU216WMR100,2013-06-05 09:39:00,
2013-06-05 05:44:00,49.6,42.1,29.09,North,0,0.0,0.0,75,0.00,,,0.00,WUHU216WMR100,2013-06-05 09:44:00,
2013-06-05 05:49:00,49.6,42.4,29.12,North,0,0.0,0.0,76,0.00,,,0.00,WUHU216WMR100,2013-06-05 09:49:00,
2013-06-05 05:54:00,49.8,42.6,29.12,North,0,0.0,1.6,76,0.00,,,0.00,WUHU216WMR100,2013-06-05 09:54:00,
2013-06-05 05:59:00,49.8,42.6,29.12,North,0,0.0,1.6,76,0.00,,,0.00,WUHU216WMR100,2013-06-05 09:59:00,
2013-06-05 06:04:00,49.8,42.6,29.12,North,0,0.0,0.0,76,0.00,,,0.00,WUHU216WMR100,2013-06-05 10:04:00,
2013-06-05 06:09:00,49.8,42.9,29.12,North,0,2.0,2.5,77,0.00,,,0.00,WUHU216WMR100,2013-06-05 10:09:00,
2013-06-05 06:14:00,49.8,43.3,29.12,North,0,1.3,2.5,78,0.00,,,0.00,WUHU216WMR100,2013-06-05 10:14:00,
2013-06-05 06:19:00,50.0,43.1,29.12,North,0,0.0,2.5,77,0.00,,,0.00,WUHU216WMR100,2013-06-05 10:19:00,
2013-06-05 06:24:00,50.2,43.3,29.12,North,0,0.0,1.6,77,0.00,,,0.00,WUHU216WMR100,2013-06-05 10:24:00,
2013-06-05 06:29:00,50.2,43.3,29.12,North,0,1.3,2.2,77,0.00,,,0.00,WUHU216WMR100,2013-06-05 10:29:00,
2013-06-05 06:34:00,50.5,43.9,29.12,North,0,0.0,2.2,78,0.00,,,0.00,WUHU216WMR100,2013-06-05 10:34:00,
2013-06-05 06:39:00,50.9,44.3,29.12,North,0,0.5,2.0,78,0.00,,,0.00,WUHU216WMR100,2013-06-05 10:39:00,
2013-06-05 06:44:00,51.1,44.5,29.12,North,0,0.0,2.0,78,0.00,,,0.00,WUHU216WMR100,2013-06-05 10:44:00,
2013-06-05 06:49:00,51.4,44.8,29.12,North,0,0.0,2.0,78,0.00,,,0.00,WUHU216WMR100,2013-06-05 10:49:00,
2013-06-05 06:54:00,52.2,45.6,29.12,North,0,1.6,2.2,78,0.00,,,0.00,WUHU216WMR100,2013-06-05 10:54:00,
2013-06-05 06:59:00,53.1,46.5,29.12,North,0,0.9,2.2,78,0.00,,,0.00,WUHU216WMR100,2013-06-05 10:59:00,
2013-06-05 07:04:00,53.4,46.4,29.12,North,0,0.0,2.2,77,0.00,,,0.00,WUHU216WMR100,2013-06-05 11:04:00,
2013-06-05 07:09:00,54.0,46.3,29.12,North,0,0.0,1.1,75,0.00,,,0.00,WUHU216WMR100,2013-06-05 11:09:00,
2013-06-05 07:14:00,54.5,46.5,29.12,North,0,0.0,1.1,74,0.00,,,0.00,WUHU216WMR100,2013-06-05 11:14:00,
2013-06-05 07:19:00,55.4,47.0,29.12,North,0,0.0,0.9,73,0.00,,,0.00,WUHU216WMR100,2013-06-05 11:19:00,
2013-06-05 07:24:00,56.3,47.5,29.12,North,0,0.0,0.0,72,0.00,,,0.00,WUHU216WMR100,2013-06-05 11:24:00,
2013-06-05 07:29:00,56.8,47.2,29.12,North,0,0.0,0.0,70,0.00,,,0.00,WUHU216WMR100,2013-06-05 11:29:00,
2013-06-05 07:34:00,57.9,47.9,29.12,North,0,0.0,0.0,69,0.00,,,0.00,WUHU216WMR100,2013-06-05 11:34:00,
2013-06-05 07:39:00,58.8,48.0,29.12,North,0,0.0,0.0,67,0.00,,,0.00,WUHU216WMR100,2013-06-05 11:39:00,
2013-06-05 07:44:00,59.2,45.4,29.12,East,90,2.5,3.4,60,0.00,,,0.00,WUHU216WMR100,2013-06-05 11:44:00,
2013-06-05 07:49:00,59.7,45.0,29.12,East,90,0.3,3.4,58,0.00,,,0.00,WUHU216WMR100,2013-06-05 11:49:00,
2013-06-05 07:54:00,60.4,45.2,29.12,East,90,1.2,2.7,57,0.00,,,0.00,WUHU216WMR100,2013-06-05 11:54:00,
2013-06-05 07:59:00,60.3,43.2,29.12,East,90,0.9,2.9,53,0.00,,,0.00,WUHU216WMR100,2013-06-05 11:59:00,
2013-06-05 08:04:00,60.8,43.6,29.12,ENE,67,1.3,3.6,53,0.00,,,0.00,WUHU216WMR100,2013-06-05 12:04:00,
2013-06-05 08:09:00,61.5,44.3,29.12,ENE,67,0.0,3.6,53,0.00,,,0.00,WUHU216WMR100,2013-06-05 12:09:00,
2013-06-05 08:14:00,61.9,44.1,29.12,ENE,67,0.0,2.2,52,0.00,,,0.00,WUHU216WMR100,2013-06-05 12:14:00,
2013-06-05 08:19:00,63.1,44.2,29.12,ENE,67,0.7,2.0,50,0.00,,,0.00,WUHU216WMR100,2013-06-05 12:19:00,
2013-06-05 08:24:00,64.2,43.5,29.12,ENE,67,2.2,2.9,47,0.00,,,0.00,WUHU216WMR100,2013-06-05 12:24:00,
2013-06-05 08:29:00,64.8,43.5,29.12,ESE,112,1.4,3.8,46,0.00,,,0.00,WUHU216WMR100,2013-06-05 12:29:00,
2013-06-05 08:34:00,65.3,43.4,29.09,ESE,112,1.1,3.8,45,0.00,,,0.00,WUHU216WMR100,2013-06-05 12:34:00,
2013-06-05 08:39:00,65.5,42.3,29.09,East,90,1.3,3.4,43,0.00,,,0.00,WUHU216WMR100,2013-06-05 12:39:00,
2013-06-05 08:44:00,66.0,42.8,29.09,East,101,1.8,3.4,43,0.00,,,0.00,WUHU216WMR100,2013-06-05 12:44:00,
2013-06-05 08:49:00,66.4,41.9,29.09,East,101,2.5,4.3,41,0.00,,,0.00,WUHU216WMR100,2013-06-05 12:49:00,
2013-06-05 08:54:00,66.9,40.3,29.09,East,80,2.4,4.9,38,0.00,,,0.00,WUHU216WMR100,2013-06-05 12:54:00,
2013-06-05 08:59:00,67.1,40.5,29.09,ESE,112,3.4,4.9,38,0.00,,,0.00,WUHU216WMR100,2013-06-05 12:59:00,
2013-06-05 09:04:00,67.5,40.8,29.09,ENE,67,2.7,4.0,38,0.00,,,0.00,WUHU216WMR100,2013-06-05 13:04:00,
2013-06-05 09:09:00,67.8,40.4,29.09,ESE,112,3.1,3.8,37,0.00,,,0.00,WUHU216WMR100,2013-06-05 13:09:00,
2013-06-05 09:14:00,68.7,41.9,29.09,East,89,1.8,3.8,38,0.00,,,0.00,WUHU216WMR100,2013-06-05 13:14:00,
2013-06-05 09:19:00,69.4,42.5,29.09,SSE,149,1.9,3.8,38,0.00,,,0.00,WUHU216WMR100,2013-06-05 13:19:00,
2013-06-05 09:24:00,70.2,41.1,29.09,ENE,67,3.1,4.7,35,0.00,,,0.00,WUHU216WMR100,2013-06-05 13:24:00,
2013-06-05 09:29:00,70.7,41.5,29.09,SE,135,2.0,4.7,35,0.00,,,0.00,WUHU216WMR100,2013-06-05 13:29:00,
2013-06-05 09:34:00,71.4,42.1,29.09,East,91,2.6,4.0,35,0.00,,,0.00,WUHU216WMR100,2013-06-05 13:34:00,
2013-06-05 09:40:00,71.8,41.7,29.09,East,90,2.9,4.9,34,0.00,,,0.00,WUHU216WMR100,2013-06-05 13:40:00,
2013-06-05 09:45:00,72.1,41.2,29.09,East,90,3.6,5.4,33,0.00,,,0.00,WUHU216WMR100,2013-06-05 13:45:00,
2013-06-05 09:50:00,73.0,42.0,29.09,ENE,67,1.7,5.4,33,0.00,,,0.00,WUHU216WMR100,2013-06-05 13:50:00,
2013-06-05 09:55:00,73.0,42.0,29.09,ESE,119,3.0,4.5,33,0.00,,,0.00,WUHU216WMR100,2013-06-05 13:55:00,
2013-06-05 10:00:00,73.6,41.7,29.09,East,88,2.9,4.9,32,0.00,,,0.00,WUHU216WMR100,2013-06-05 14:00:00,
2013-06-05 10:05:00,74.5,42.5,29.09,ESE,112,1.3,4.9,32,0.00,,,0.00,WUHU216WMR100,2013-06-05 14:05:00,
2013-06-05 10:10:00,75.2,42.3,29.09,ENE,71,2.5,4.0,31,0.00,,,0.00,WUHU216WMR100,2013-06-05 14:10:00,
2013-06-05 10:15:00,74.8,42.0,29.09,ENE,67,3.4,6.0,31,0.00,,,0.00,WUHU216WMR100,2013-06-05 14:15:00,
2013-06-05 10:23:00,75.2,42.3,29.09,East,94,3.8,5.8,31,0.00,,,0.00,WUHU216WMR100,2013-06-05 14:23:00,
2013-06-05 10:28:00,76.1,43.1,29.09,ENE,67,2.0,5.8,31,0.00,,,0.00,WUHU216WMR100,2013-06-05 14:28:00,
2013-06-05 10:33:00,77.2,42.3,29.09,SSE,157,2.0,5.4,29,0.00,,,0.00,WUHU216WMR100,2013-06-05 14:33:00,
2013-06-05 10:38:00,76.5,41.7,29.09,East,90,3.6,5.6,29,0.00,,,0.00,WUHU216WMR100,2013-06-05 14:38:00,
2013-06-05 10:43:00,76.6,41.8,29.09,ESE,113,3.0,6.0,29,0.00,,,0.00,WUHU216WMR100,2013-06-05 14:43:00,
2013-06-05 10:48:00,77.7,41.9,29.09,NW,315,2.2,6.0,28,0.00,,,0.00,WUHU216WMR100,2013-06-05 14:48:00,
2013-06-05 10:53:00,78.3,41.4,29.09,ESE,112,3.1,4.0,27,0.00,,,0.00,WUHU216WMR100,2013-06-05 14:53:00,
2013-06-05 10:58:00,77.2,42.3,29.09,NNE,22,3.4,6.3,29,0.00,,,0.00,WUHU216WMR100,2013-06-05 14:58:00,
2013-06-05 11:03:00,78.1,42.2,29.09,East,90,2.5,6.3,28,0.00,,,0.00,WUHU216WMR100,2013-06-05 15:03:00,
2013-06-05 11:08:00,79.2,41.2,29.09,ENE,74,2.1,5.6,26,0.00,,,0.00,WUHU216WMR100,2013-06-05 15:08:00,
2013-06-05 11:13:00,79.0,40.1,29.09,ESE,112,3.4,5.8,25,0.00,,,0.00,WUHU216WMR100,2013-06-05 15:13:00,
2013-06-05 11:18:00,78.6,39.7,29.09,East,90,3.8,5.8,25,0.00,,,0.00,WUHU216WMR100,2013-06-05 15:18:00,
2013-06-05 11:23:00,79.0,39.0,29.09,ENE,67,4.0,5.4,24,0.00,,,0.00,WUHU216WMR100,2013-06-05 15:23:00,
2013-06-05 11:28:00,79.5,39.5,29.09,East,90,3.4,5.8,24,0.00,,,0.00,WUHU216WMR100,2013-06-05 15:28:00,
2013-06-05 11:33:00,78.8,38.9,29.06,ENE,77,5.3,8.1,24,0.00,,,0.00,WUHU216WMR100,2013-06-05 15:33:00,
2013-06-05 11:38:00,80.4,41.3,29.06,ESE,105,2.1,8.1,25,0.00,,,0.00,WUHU216WMR100,2013-06-05 15:38:00,
2013-06-05 11:43:00,81.5,41.1,29.06,ENE,78,1.8,7.4,24,0.00,,,0.00,WUHU216WMR100,2013-06-05 15:43:00,
2013-06-05 11:48:00,81.0,39.6,29.06,ESE,103,3.9,7.4,23,0.00,,,0.00,WUHU216WMR100,2013-06-05 15:48:00,
2013-06-05 11:53:00,80.8,38.4,29.06,ESE,112,3.6,7.4,22,0.00,,,0.00,WUHU216WMR100,2013-06-05 15:53:00,
2013-06-05 11:58:00,82.4,40.8,29.06,ENE,76,1.3,6.0,23,0.00,,,0.00,WUHU216WMR100,2013-06-05 15:58:00,
2013-06-05 12:03:00,83.7,41.9,29.06,ESE,112,1.6,3.6,23,0.00,,,0.00,WUHU216WMR100,2013-06-05 16:03:00,
2013-06-05 12:08:00,83.5,39.4,29.06,East,90,3.6,5.8,21,0.00,,,0.00,WUHU216WMR100,2013-06-05 16:08:00,
2013-06-05 12:13:00,82.8,38.8,29.06,East,90,3.8,5.8,21,0.00,,,0.00,WUHU216WMR100,2013-06-05 16:13:00,
2013-06-05 12:18:00,81.5,37.8,29.03,SE,124,4.7,8.1,21,0.00,,,0.00,WUHU216WMR100,2013-06-05 16:18:00,
2013-06-05 12:23:00,82.2,38.3,29.03,WSW,247,2.5,8.1,21,0.00,,,0.00,WUHU216WMR100,2013-06-05 16:23:00,
2013-06-05 12:28:00,82.2,38.3,29.03,SE,135,4.7,6.5,21,0.00,,,0.00,WUHU216WMR100,2013-06-05 16:28:00,
2013-06-05 12:33:00,84.6,39.1,29.03,SE,135,1.1,6.3,20,0.00,,,0.00,WUHU216WMR100,2013-06-05 16:33:00,
2013-06-05 12:38:00,85.1,39.5,29.03,SSE,157,2.7,4.7,20,0.00,,,0.00,WUHU216WMR100,2013-06-05 16:38:00,
2013-06-05 12:43:00,84.7,39.2,29.03,East,90,2.7,5.6,20,0.00,,,0.00,WUHU216WMR100,2013-06-05 16:43:00,
2013-06-05 12:48:00,84.2,38.8,29.03,East,90,3.5,5.6,20,0.00,,,0.00,WUHU216WMR100,2013-06-05 16:48:00,
2013-06-05 12:53:00,84.9,39.3,29.03,ESE,111,2.8,5.6,20,0.00,,,0.00,WUHU216WMR100,2013-06-05 16:53:00,
2013-06-05 12:58:00,85.1,39.5,29.03,SE,130,2.6,6.0,20,0.00,,,0.00,WUHU216WMR100,2013-06-05 16:58:00,
2013-06-05 13:03:00,84.9,39.3,29.03,NNE,28,2.4,7.8,20,0.00,,,0.00,WUHU216WMR100,2013-06-05 17:03:00,
2013-06-05 13:08:00,83.3,38.0,29.03,East,87,4.6,8.7,20,0.00,,,0.00,WUHU216WMR100,2013-06-05 17:08:00,
2013-06-05 13:13:00,84.6,37.8,29.03,ENE,67,3.4,8.7,19,0.00,,,0.00,WUHU216WMR100,2013-06-05 17:13:00,
2013-06-05 13:18:00,84.9,38.0,29.03,ESE,113,2.6,5.6,19,0.00,,,0.00,WUHU216WMR100,2013-06-05 17:18:00,
2013-06-05 13:23:00,83.5,36.9,29.03,East,90,4.9,6.0,19,0.00,,,0.00,WUHU216WMR100,2013-06-05 17:23:00,
2013-06-05 13:28:00,83.8,37.1,29.03,East,90,4.3,6.0,19,0.00,,,0.00,WUHU216WMR100,2013-06-05 17:28:00,
2013-06-05 13:33:00,84.9,38.0,29.00,NW,315,2.5,5.8,19,0.00,,,0.00,WUHU216WMR100,2013-06-05 17:33:00,
2013-06-05 13:38:00,83.8,37.1,29.00,East,90,4.7,8.1,19,0.00,,,0.00,WUHU216WMR100,2013-06-05 17:38:00,
2013-06-05 13:43:00,83.5,36.9,29.00,ESE,112,4.3,8.1,19,0.00,,,0.00,WUHU216WMR100,2013-06-05 17:43:00,
2013-06-05 13:48:00,84.0,37.3,29.00,ESE,112,3.8,5.8,19,0.00,,,0.00,WUHU216WMR100,2013-06-05 17:48:00,
2013-06-05 13:53:00,85.6,38.6,29.00,East,85,2.6,5.8,19,0.00,,,0.00,WUHU216WMR100,2013-06-05 17:53:00,
2013-06-05 13:58:00,86.0,38.9,29.00,WSW,247,2.0,3.8,19,0.00,,,0.00,WUHU216WMR100,2013-06-05 17:58:00,
2013-06-05 14:03:00,85.3,38.4,29.00,East,90,4.3,7.2,19,0.00,,,0.00,WUHU216WMR100,2013-06-05 18:03:00,
2013-06-05 14:08:00,86.9,39.7,29.00,ENE,67,1.5,7.2,19,0.00,,,0.00,WUHU216WMR100,2013-06-05 18:08:00,
2013-06-05 14:13:00,86.4,37.9,29.00,NW,315,3.8,5.8,18,0.00,,,0.00,WUHU216WMR100,2013-06-05 18:13:00,
2013-06-05 14:18:00,86.0,37.6,29.00,ENE,75,4.1,6.0,18,0.00,,,0.00,WUHU216WMR100,2013-06-05 18:18:00,
2013-06-05 14:23:00,86.7,39.5,29.00,SSE,157,2.9,7.2,19,0.00,,,0.00,WUHU216WMR100,2013-06-05 18:23:00,
2013-06-05 14:28:00,87.6,40.2,29.00,East,90,3.8,7.2,19,0.00,,,0.00,WUHU216WMR100,2013-06-05 18:28:00,
2013-06-05 14:33:00,87.3,40.0,29.03,ENE,67,2.7,5.4,19,0.00,,,0.00,WUHU216WMR100,2013-06-05 18:33:00,
2013-06-05 14:38:00,88.5,39.6,29.03,ESE,112,2.5,4.0,18,0.00,,,0.00,WUHU216WMR100,2013-06-05 18:38:00,
2013-06-05 14:43:00,89.1,40.1,29.03,ESE,112,1.5,3.8,18,0.00,,,0.00,WUHU216WMR100,2013-06-05 18:43:00,
2013-06-05 14:48:00,89.2,40.2,29.00,East,90,2.9,4.3,18,0.00,,,0.00,WUHU216WMR100,2013-06-05 18:48:00,
2013-06-05 14:53:00,90.0,40.8,29.00,East,90,1.2,4.3,18,0.00,,,0.00,WUHU216WMR100,2013-06-05 18:53:00,
2013-06-05 14:58:00,89.8,40.6,29.00,North,350,1.9,4.9,18,0.00,,,0.00,WUHU216WMR100,2013-06-05 18:58:00,
2013-06-05 15:03:00,88.7,39.8,29.03,NW,315,3.8,6.0,18,0.00,,,0.00,WUHU216WMR100,2013-06-05 19:03:00,
2013-06-05 15:08:00,88.9,39.9,29.03,WNW,292,3.6,6.0,18,0.00,,,0.00,WUHU216WMR100,2013-06-05 19:08:00,
2013-06-05 15:13:00,89.2,40.2,29.03,West,270,2.5,5.6,18,0.00,,,0.00,WUHU216WMR100,2013-06-05 19:13:00,
2013-06-05 15:18:00,88.3,39.4,29.00,WSW,245,3.0,7.6,18,0.00,,,0.00,WUHU216WMR100,2013-06-05 19:18:00,
2013-06-05 15:23:00,89.4,40.3,29.00,NNW,337,2.5,7.6,18,0.00,,,0.00,WUHU216WMR100,2013-06-05 19:23:00,
2013-06-05 15:28:00,89.1,40.1,29.00,NNW,337,2.9,4.9,18,0.00,,,0.00,WUHU216WMR100,2013-06-05 19:28:00,
2013-06-05 15:33:00,88.7,39.8,29.00,NNW,337,3.4,4.9,18,0.00,,,0.00,WUHU216WMR100,2013-06-05 19:33:00,
2013-06-05 15:38:00,89.6,40.5,29.00,WNW,295,1.3,4.0,18,0.00,,,0.00,WUHU216WMR100,2013-06-05 19:38:00,
2013-06-05 15:43:00,89.6,40.5,29.00,NNW,337,3.1,4.0,18,0.00,,,0.00,WUHU216WMR100,2013-06-05 19:43:00,
2013-06-05 15:48:00,88.5,39.6,29.00,NNE,30,3.4,6.0,18,0.00,,,0.00,WUHU216WMR100,2013-06-05 19:48:00,
2013-06-05 15:53:00,88.9,41.3,29.00,NE,53,1.9,6.0,19,0.00,,,0.00,WUHU216WMR100,2013-06-05 19:53:00,
2013-06-05 15:58:00,88.2,39.3,29.00,ENE,67,3.1,5.8,18,0.00,,,0.00,WUHU216WMR100,2013-06-05 19:58:00,
2013-06-05 16:03:00,88.7,39.8,29.00,East,90,2.7,5.8,18,0.00,,,0.00,WUHU216WMR100,2013-06-05 20:03:00,
2013-06-05 16:08:00,89.2,40.2,29.00,NNE,16,2.1,5.4,18,0.00,,,0.00,WUHU216WMR100,2013-06-05 20:08:00,
2013-06-05 16:13:00,89.2,40.2,29.00,ENE,67,2.0,4.0,18,0.00,,,0.00,WUHU216WMR100,2013-06-05 20:13:00,
2013-06-05 16:18:00,89.1,40.1,28.97,WSW,247,2.1,4.0,18,0.00,,,0.00,WUHU216WMR100,2013-06-05 20:18:00,
2013-06-05 16:23:00,88.5,39.6,28.97,East,90,2.5,5.4,18,0.00,,,0.00,WUHU216WMR100,2013-06-05 20:23:00,
2013-06-05 16:28:00,88.9,39.9,28.97,ENE,73,1.5,5.8,18,0.00,,,0.00,WUHU216WMR100,2013-06-05 20:28:00,
2013-06-05 16:33:00,90.0,40.8,28.97,NNE,22,2.2,5.8,18,0.00,,,0.00,WUHU216WMR100,2013-06-05 20:33:00,
2013-06-05 16:38:00,88.9,39.9,28.97,ENE,67,3.4,8.5,18,0.00,,,0.00,WUHU216WMR100,2013-06-05 20:38:00,
2013-06-05 16:43:00,89.2,41.6,28.97,ENE,67,1.3,8.5,19,0.00,,,0.00,WUHU216WMR100,2013-06-05 20:43:00,
2013-06-05 16:48:00,88.9,41.3,28.97,NNE,22,2.5,5.8,19,0.00,,,0.00,WUHU216WMR100,2013-06-05 20:48:00,
2013-06-05 16:53:00,88.5,41.0,28.97,East,90,2.7,5.6,19,0.00,,,0.00,WUHU216WMR100,2013-06-05 20:53:00,
2013-06-05 16:58:00,88.7,41.1,28.97,SSE,157,1.6,3.8,19,0.00,,,0.00,WUHU216WMR100,2013-06-05 20:58:00,
2013-06-05 17:03:00,89.2,41.6,28.97,West,270,2.2,3.1,19,0.00,,,0.00,WUHU216WMR100,2013-06-05 21:03:00,
2013-06-05 17:08:00,89.1,41.5,28.97,ESE,112,2.0,3.1,19,0.00,,,0.00,WUHU216WMR100,2013-06-05 21:08:00,
2013-06-05 17:13:00,88.5,41.0,28.97,East,90,3.6,6.0,19,0.00,,,0.00,WUHU216WMR100,2013-06-05 21:13:00,
2013-06-05 17:18:00,88.5,41.0,28.97,ESE,112,2.7,6.0,19,0.00,,,0.00,WUHU216WMR100,2013-06-05 21:18:00,
2013-06-05 17:23:00,89.6,40.5,28.97,ESE,112,0.9,4.3,18,0.00,,,0.00,WUHU216WMR100,2013-06-05 21:23:00,
2013-06-05 17:28:00,89.2,41.6,28.97,ESE,112,1.9,3.1,19,0.00,,,0.00,WUHU216WMR100,2013-06-05 21:28:00,
2013-06-05 17:33:00,88.9,41.3,28.97,NE,45,4.0,5.4,19,0.00,,,0.00,WUHU216WMR100,2013-06-05 21:33:00,
2013-06-05 17:38:00,88.7,41.1,28.97,NE,45,0.7,5.4,19,0.00,,,0.00,WUHU216WMR100,2013-06-05 21:38:00,
2013-06-05 17:43:00,88.0,40.6,28.97,East,90,4.4,6.5,19,0.00,,,0.00,WUHU216WMR100,2013-06-05 21:43:00,
2013-06-05 17:48:00,88.3,40.8,28.97,East,90,3.1,6.5,19,0.00,,,0.00,WUHU216WMR100,2013-06-05 21:48:00,
2013-06-05 17:53:00,88.0,40.6,28.97,East,90,3.4,7.4,19,0.00,,,0.00,WUHU216WMR100,2013-06-05 21:53:00,
2013-06-05 17:58:00,86.5,40.7,28.97,East,90,4.3,7.6,20,0.00,,,0.00,WUHU216WMR100,2013-06-05 21:58:00,
2013-06-05 18:03:00,86.0,40.2,28.94,ESE,112,3.4,7.6,20,0.00,,,0.00,WUHU216WMR100,2013-06-05 22:03:00,
2013-06-05 18:08:00,86.2,40.4,28.94,ESE,111,2.9,5.6,20,0.00,,,0.00,WUHU216WMR100,2013-06-05 22:08:00,
2013-06-05 18:13:00,86.4,40.6,28.94,ENE,67,1.6,5.6,20,0.00,,,0.00,WUHU216WMR100,2013-06-05 22:13:00,
2013-06-05 18:19:00,85.6,39.9,28.94,ESE,112,2.6,4.3,20,0.00,,,0.00,WUHU216WMR100,2013-06-05 22:19:00,
2013-06-05 18:24:00,83.8,39.7,28.94,ENE,67,2.5,7.6,21,0.00,,,0.00,WUHU216WMR100,2013-06-05 22:24:00,
2013-06-05 18:29:00,84.2,40.0,28.94,East,90,3.6,7.6,21,0.00,,,0.00,WUHU216WMR100,2013-06-05 22:29:00,
2013-06-05 18:34:00,85.3,40.9,28.97,East,90,2.0,5.4,21,0.00,,,0.00,WUHU216WMR100,2013-06-05 22:34:00,
2013-06-05 18:39:00,84.7,40.4,28.97,East,90,3.8,4.7,21,0.00,,,0.00,WUHU216WMR100,2013-06-05 22:39:00,
2013-06-05 18:44:00,84.7,41.6,28.97,ESE,112,2.5,4.7,22,0.00,,,0.00,WUHU216WMR100,2013-06-05 22:44:00,
2013-06-05 18:49:00,84.6,41.5,28.94,East,90,2.5,4.3,22,0.00,,,0.00,WUHU216WMR100,2013-06-05 22:49:00,
2013-06-05 18:54:00,84.6,41.5,28.94,ESE,112,2.5,4.3,22,0.00,,,0.00,WUHU216WMR100,2013-06-05 22:54:00,
2013-06-05 18:59:00,84.0,42.2,28.94,SSW,202,1.4,3.6,23,0.00,,,0.00,WUHU216WMR100,2013-06-05 22:59:00,
2013-06-05 19:04:00,84.4,42.5,28.94,East,90,2.0,3.6,23,0.00,,,0.00,WUHU216WMR100,2013-06-05 23:04:00,
2013-06-05 19:09:00,84.2,41.2,28.94,East,90,2.9,4.3,22,0.00,,,0.00,WUHU216WMR100,2013-06-05 23:09:00,
2013-06-05 19:14:00,83.3,41.6,28.94,ENE,67,2.4,4.3,23,0.00,,,0.00,WUHU216WMR100,2013-06-05 23:14:00,
2013-06-05 19:19:00,82.9,41.2,28.94,East,90,2.7,3.8,23,0.00,,,0.00,WUHU216WMR100,2013-06-05 23:19:00,
2013-06-05 19:24:00,82.2,42.8,28.94,East,96,3.0,4.3,25,0.00,,,0.00,WUHU216WMR100,2013-06-05 23:24:00,
2013-06-05 19:29:00,81.9,42.5,28.94,ESE,112,2.2,4.3,25,0.00,,,0.00,WUHU216WMR100,2013-06-05 23:29:00,
2013-06-05 19:34:00,81.7,43.4,28.94,ESE,112,0.0,3.8,26,0.00,,,0.00,WUHU216WMR100,2013-06-05 23:34:00,
2013-06-05 19:39:00,81.5,44.2,28.94,ESE,112,0.3,2.2,27,0.00,,,0.00,WUHU216WMR100,2013-06-05 23:39:00,
2013-06-05 19:44:00,81.3,44.0,28.94,ESE,112,1.5,2.5,27,0.00,,,0.00,WUHU216WMR100,2013-06-05 23:44:00,
2013-06-05 19:49:00,80.8,43.6,28.94,ESE,112,0.0,2.5,27,0.00,,,0.00,WUHU216WMR100,2013-06-05 23:49:00,
2013-06-05 19:54:00,80.1,44.8,28.94,ESE,112,1.3,2.2,29,0.00,,,0.00,WUHU216WMR100,2013-06-05 23:54:00,
2013-06-05 19:59:00,79.5,45.2,28.94,ESE,112,0.0,2.2,30,0.00,,,0.00,WUHU216WMR100,2013-06-05 23:59:00,
2013-06-05 20:04:00,79.2,44.9,28.94,ESE,112,0.9,2.2,30,0.00,,,0.00,WUHU216WMR100,2013-06-06 00:04:00,
2013-06-05 20:09:00,79.0,44.8,28.94,ESE,112,1.2,3.1,30,0.00,,,0.00,WUHU216WMR100,2013-06-06 00:09:00,
2013-06-05 20:14:00,78.8,44.6,28.94,ESE,112,1.3,3.1,30,0.00,,,0.00,WUHU216WMR100,2013-06-06 00:14:00,
2013-06-05 20:19:00,78.6,45.3,28.94,ESE,112,0.0,2.2,31,0.00,,,0.00,WUHU216WMR100,2013-06-06 00:19:00,
2013-06-05 20:24:00,78.4,45.1,28.94,ESE,112,0.0,1.3,31,0.00,,,0.00,WUHU216WMR100,2013-06-06 00:24:00,
2013-06-05 20:29:00,77.9,44.7,28.94,ESE,112,1.1,2.0,31,0.00,,,0.00,WUHU216WMR100,2013-06-06 00:29:00,
2013-06-05 20:34:00,77.4,45.1,28.94,ESE,112,0.0,2.0,32,0.00,,,0.00,WUHU216WMR100,2013-06-06 00:34:00,
2013-06-05 20:39:00,77.0,44.7,28.94,ESE,112,0.4,1.3,32,0.00,,,0.00,WUHU216WMR100,2013-06-06 00:39:00,
2013-06-05 20:44:00,76.6,45.2,28.94,NE,45,1.1,1.6,33,0.00,,,0.00,WUHU216WMR100,2013-06-06 00:44:00,
2013-06-05 20:49:00,76.3,44.9,28.94,NE,45,0.5,2.5,33,0.00,,,0.00,WUHU216WMR100,2013-06-06 00:49:00,
2013-06-05 20:54:00,76.1,46.3,28.94,NE,45,0.0,2.5,35,0.00,,,0.00,WUHU216WMR100,2013-06-06 00:54:00,
2013-06-05 20:59:00,75.6,48.1,28.94,NE,45,1.6,2.9,38,0.00,,,0.00,WUHU216WMR100,2013-06-06 00:59:00,
2013-06-05 21:04:00,75.2,47.7,28.94,NE,45,1.5,2.9,38,0.00,,,0.00,WUHU216WMR100,2013-06-06 01:04:00,
2013-06-05 21:09:00,74.7,48.0,28.94,WNW,292,2.2,2.9,39,0.00,,,0.00,WUHU216WMR100,2013-06-06 01:09:00,
2013-06-05 21:14:00,74.5,49.2,28.94,WNW,292,0.8,2.9,41,0.00,,,0.00,WUHU216WMR100,2013-06-06 01:14:00,
2013-06-05 21:19:00,73.9,48.6,28.94,WNW,292,0.3,2.5,41,0.00,,,0.00,WUHU216WMR100,2013-06-06 01:19:00,
2013-06-05 21:24:00,73.8,49.2,28.94,East,90,2.0,2.5,42,0.00,,,0.00,WUHU216WMR100,2013-06-06 01:24:00,
2013-06-05 21:29:00,73.4,48.8,28.94,East,90,0.0,2.5,42,0.00,,,0.00,WUHU216WMR100,2013-06-06 01:29:00,
2013-06-05 21:34:00,73.0,48.5,28.94,East,90,0.0,2.5,42,0.00,,,0.00,WUHU216WMR100,2013-06-06 01:34:00,
2013-06-05 21:39:00,72.7,48.9,28.94,East,90,0.0,0.0,43,0.00,,,0.00,WUHU216WMR100,2013-06-06 01:39:00,
2013-06-05 21:44:00,72.5,48.7,28.94,East,90,0.0,0.0,43,0.00,,,0.00,WUHU216WMR100,2013-06-06 01:44:00,
2013-06-05 21:50:00,72.3,49.1,28.94,East,90,0.0,0.0,44,0.00,,,0.00,WUHU216WMR100,2013-06-06 01:50:00,
2013-06-05 21:55:00,72.0,48.9,28.94,East,90,0.8,2.7,44,0.00,,,0.00,WUHU216WMR100,2013-06-06 01:55:00,
2013-06-05 22:00:00,71.6,50.3,28.94,WSW,250,1.9,3.4,47,0.00,,,0.00,WUHU216WMR100,2013-06-06 02:00:00,
2013-06-05 22:05:00,71.2,51.1,28.94,WNW,292,2.0,3.4,49,0.00,,,0.00,WUHU216WMR100,2013-06-06 02:05:00,
2013-06-05 22:13:00,70.7,50.1,28.94,WNW,292,0.0,2.5,48,0.00,,,0.00,WUHU216WMR100,2013-06-06 02:13:00,
2013-06-05 22:18:00,70.3,49.1,28.94,WNW,292,0.0,1.6,47,0.00,,,0.00,WUHU216WMR100,2013-06-06 02:18:00,
2013-06-05 22:25:00,70.0,49.4,28.94,WNW,292,0.0,0.0,48,0.00,,,0.00,WUHU216WMR100,2013-06-06 02:25:00,
2013-06-05 22:30:00,69.8,49.8,28.94,WNW,292,0.0,0.9,49,0.00,,,0.00,WUHU216WMR100,2013-06-06 02:30:00,
2013-06-05 22:35:00,69.4,50.0,28.94,WNW,292,1.3,2.2,50,0.00,,,0.00,WUHU216WMR100,2013-06-06 02:35:00,
2013-06-05 22:40:00,69.3,51.0,28.94,WNW,292,0.7,2.2,52,0.00,,,0.00,WUHU216WMR100,2013-06-06 02:40:00,
2013-06-05 22:45:00,68.9,51.2,28.94,North,0,2.0,2.9,53,0.00,,,0.00,WUHU216WMR100,2013-06-06 02:45:00,
2013-06-05 22:50:00,68.9,53.2,28.94,NNW,337,3.1,4.9,57,0.00,,,0.00,WUHU216WMR100,2013-06-06 02:50:00,
2013-06-05 22:56:00,68.9,53.2,28.94,NNW,337,3.0,6.3,57,0.00,,,0.00,WUHU216WMR100,2013-06-06 02:56:00,
2013-06-05 23:01:00,68.7,51.5,28.94,NNW,337,2.2,6.3,54,0.00,,,0.00,WUHU216WMR100,2013-06-06 03:01:00,
2013-06-05 23:06:00,68.5,50.8,28.94,ENE,67,2.5,4.3,53,0.00,,,0.00,WUHU216WMR100,2013-06-06 03:06:00,
2013-06-05 23:11:00,68.5,50.3,28.94,East,90,1.3,4.3,52,0.00,,,0.00,WUHU216WMR100,2013-06-06 03:11:00,
2013-06-05 23:16:00,68.4,49.6,28.94,ESE,112,1.4,4.3,51,0.00,,,0.00,WUHU216WMR100,2013-06-06 03:16:00,
2013-06-05 23:21:00,68.0,49.8,28.94,East,94,2.5,4.0,52,0.00,,,0.00,WUHU216WMR100,2013-06-06 03:21:00,
2013-06-05 23:26:00,68.0,50.3,28.94,East,90,2.2,4.0,53,0.00,,,0.00,WUHU216WMR100,2013-06-06 03:26:00,
2013-06-05 23:31:00,67.8,49.1,28.94,East,90,3.4,5.4,51,0.00,,,0.00,WUHU216WMR100,2013-06-06 03:31:00,
2013-06-05 23:36:00,67.6,48.3,28.94,NNE,25,1.9,5.4,50,0.00,,,0.00,WUHU216WMR100,2013-06-06 03:36:00,
2013-06-05 23:41:00,67.6,47.8,28.94,NNE,22,1.7,6.0,49,0.00,,,0.00,WUHU216WMR100,2013-06-06 03:41:00,
2013-06-05 23:46:00,67.5,47.7,28.94,ESE,114,2.1,6.0,49,0.00,,,0.00,WUHU216WMR100,2013-06-06 03:46:00,
2013-06-05 23:51:00,67.3,46.9,28.94,ENE,67,2.9,6.0,48,0.00,,,0.00,WUHU216WMR100,2013-06-06 03:51:00,
2013-06-05 23:57:00,67.1,46.8,28.94,ENE,67,2.9,6.0,48,0.00,,,0.00,WUHU216WMR100,2013-06-06 03:57:00,